Regional Weather Roundup
Issued by NWS

Home | Current Version | Previous Version | Text Only | Print | Product List | Glossary On
Versions: 1 2 3 4 5 6 7 8 9 10 11 12 13 14 15 16 17 18 19 20 21 22 23 24 25 26 27 28 29 30 31 32 33 34 35 36 37 38 39 40 41 42 43 44 45 46 47 48 49 50
000
ASUS43 KDTX 192101
RWRMI
MICHIGAN HOURLY REGIONAL WEATHER ROUNDUP
NATIONAL WEATHER SERVICE DETROIT/PONTIAC MI
400 PM EST SUN FEB 19 2017

NOTE: "FAIR" INDICATES FEW OR NO CLOUDS BELOW 12,000 FEET WITH NO
SIGNIFICANT WEATHER AND/OR OBSTRUCTION TO VISIBILITY.

MIZ047>049-052>055-059>063-066>070-074>076-081>083-192200-
SOUTHEAST LOWER MICHIGAN

CITY           SKY/WX    TMP DP  RH WIND       PRES   REMARKS
ADRIAN         SUNNY     64  29  26 W10       30.04R
ALMA           MOSUNNY   61  27  27 NW8G18    30.04R
ANN ARBOR      SUNNY     64  27  24 W10       30.02R
BAD AXE        SUNNY     53  33  46 W8        30.04R
CARO           SUNNY     58  37  46 W6        30.02R
DETROIT CITY   SUNNY     65  27  23 N9        30.01R
DETROIT        MOSUNNY   66  27  23 W13       30.02R
FLINT          MOSUNNY   55  35  47 W13       30.04R
GROSSE ILE     SUNNY     65  28  24 W8        30.00R
HILLSDALE      SUNNY     63  30  29 W12       30.03S
HOWELL         SUNNY     60  26  27 NW12      30.03R

CITY           SKY/WX    TMP DP  RH WIND       PRES   REMARKS
JACKSON        SUNNY     64  23  21 NW13      30.03R
LAMBERTVILLE   SUNNY     66  29  24 W8        30.03R
LANSING        SUNNY     62  30  29 W12       30.04R
LAPEER         FAIR      58  32  36 NW12      30.03R
MASON          SUNNY     62  33  34 NW12      30.04R
MONROE         SUNNY     64  34  32 NW12G23   30.01S
MT. CLEMENS    MOSUNNY   61  29  29 NW8       30.00R
PONTIAC        MOSUNNY   58  28  32 NW12      30.01R
PORT HOPE        N/A     43  33  68 N5        30.03R
PORT HURON     SUNNY     57  36  44 NW7       30.02R
TRI CITIES     MOSUNNY   58  34  40 NW9       30.04R
MIDLAND        FAIR      58  28  31 W10       30.03R
TROY           SUNNY     63  24  23 W14       30.03R
SAGINAW HB     MOSUNNY   59  30  33 W12       30.03R
$$
MIZ043>046-050>051-056>058-064>065-071>073-077>080-192200-
SOUTHWEST LOWER MICHIGAN

CITY           SKY/WX    TMP DP  RH WIND       PRES   REMARKS
BATTLE CREEK   SUNNY     63  28  26 NW12      30.05R
BENTON HARBOR  MOSUNNY   53  31  42 W6        30.08R
BIG RAPIDS     SUNNY     58  27  31 W9        30.04S
COLDWATER      SUNNY     64  27  24 W9        30.05R
FREMONT        FAIR      61  25  24 W9        30.04R
HOLLAND        SUNNY     54  33  45 W9        30.07R
GRAND RAPIDS   MOSUNNY   62  30  29 W13       30.05R
IONIA          FAIR      61  29  30 W12       30.04R
KALAMAZOO      SUNNY     64  24  21 W9        30.06R
LUDINGTON      SUNNY     54  33  45 W6        30.06R
MARSHALL       SUNNY     65  26  22 W13       30.04R
MOUNT PLEASANT SUNNY     58  29  33 NW7       30.03S
MUSKEGON       MOSUNNY   56  30  37 NW6       30.07R
SOUTH HAVEN    SUNNY     48  34  57 W3        30.08R
$$
MIZ016>042-192200-
NORTHERN LOWER MICHIGAN

CITY           SKY/WX    TMP DP  RH WIND       PRES   REMARKS
ALPENA         SUNNY     51  30  44 NW10      30.04R
BEAVER ISLAND  SUNNY     43  31  62 SW8       30.08R
BELLAIRE       MOSUNNY   46  30  54 NW6       30.08R
CADILLAC       SUNNY     54  31  42 NW6       30.04R
CHARLEVOIX     SUNNY     43  32  65 W7        30.11R
FRANKFORT      MOSUNNY   49  34  55 NE7       30.07R
GAYLORD        SUNNY     48  28  46 NW7       30.05R
GRAYLING       SUNNY     48  31  52 W8G16     30.06R
HARBOR SPRINGS SUNNY     42  32  68 SW7       30.07R
HOUGHTON LAKE  SUNNY     52  31  44 NW8       30.04R
MANISTEE       MOSUNNY   52  33  48 NW3       30.06R
OSCODA         SUNNY     46  30  54 E5        30.03R
PELLSTON       SUNNY     43  28  55 W10       30.07R
ROGERS CITY    SUNNY     45  31  58 N7        30.06R
TRAVERSE CITY  PTSUNNY   45  33  63 N7        30.07R
$$
MIZ007>008-015-192200-
EASTERN UPPER MICHIGAN

CITY           SKY/WX    TMP DP  RH WIND       PRES   REMARKS
KINROSS        SUNNY     40  29  64 NW12      30.06R WCI  33
MACKINAC ISLAN SUNNY     39  31  74 W7        30.05R WCI  34
NEWBERRY       SUNNY     42  29  61 N8        30.05R
S. S. MARIE    SUNNY     43  29  57 NW13      30.05R
MUNISING         N/A     37  32  82 NE8       30.08R WCI  31
$$
MIZ004>006-011>014-085-192200-
CENTRAL UPPER MICHIGAN

CITY           SKY/WX    TMP DP  RH WIND       PRES   REMARKS
MANISTIQUE     SUNNY     41  32  69 SW6       30.06R
ESCANABA       MOSUNNY   45  30  55 S9        30.06R
MENOMINEE      MOSUNNY   48  32  53 E7        30.06R
SAWYER-GWINN   SUNNY     43  28  56 NE5       30.04S
$$
MIZ001>003-009>011-084-192200-
WESTERN UPPER MICHIGAN

CITY           SKY/WX    TMP DP  RH WIND       PRES   REMARKS
IRON MOUNTAIN  MOSUNNY   51  29  42 CALM      30.02R
HOUGHTON       CLOUDY    39  28  64 E9        30.04R WCI  33
COPPER HARBOR    N/A     38  32  79 CALM      30.07R
IRONWOOD       CLOUDY    56  27  32 E5        29.98S
$$

ABBREVIATIONS USED IN REMARKS
   TC - TEMPERATURE IN CELSIUS
  WCI - WIND CHILL INDEX
   HX - HEAT INDEX
  VSB - VISIBILITY





USA.gov is the U.S. government's official web portal to all federal, state and local government web resources and services.